LMRST

operational
NORAD ID: 40971 Int'l Des: 2015-058 Owner: JPL Country: US
LEO

About LMRST

Description loading...

Live Position

Loading 3D Globe...

Upcoming Passes

Altitude History

Altitude vs Time

uPlot chart will show altitude changes over time

Two-Line Element Set

1 40971U 15058H 26063.48880869 .00006107 00000-0 55195-3 0 9990
2 40971 64.7744 240.3323 0131307 99.9838 261.6121 14.89935508 97954
Epoch: Mar 4, 2026 • Age: 19 hours

Current Status

Altitude 672.6 km
Velocity 7.49 km/s
Sub-Earth Point -44.19°S, 3.98°W
Launch Date Oct 8, 2015
Age 10.4 years
Type other

Technical Details

Classification Payload
Mass 3.00 kg
Dry Mass 3.00 kg
Total Mass 3.00 kg
Length 0.30 m
Diameter 0.10 m
Span 0.30 m
Shape Box
Manufacturer JPL
Bus Type Cubesat 3U
Phase Status In Orbit
Owner/State JPL/US

Large Constellations

Loading constellations...